[[{"header":{"parameterUnit":"m.s-1","parameterCategory":1,"la1":30.2991,"la2":30.254,"lo1":-89.0895,"lo2":-89.0444,"dy":0.0017,"dx":0.0017,"nx":28,"ny":28,"refTime":"2023-05-28T21:00:00:Z","depth":0,"parameterNumber":2,"parameterNumberName":"U-component_of_WINDS"},"data":[0,0,0,0,0,0,0,0,0,0,0,0,0,0,0,0,0,0,0,0,0,0,0,0,0,0,0,0,0,0,0,0,0,0,0,0,0,0,0,0,0,0,0,0,0,0,0,0,0,0,0,0,0,0,0,0,0,0,0.3633,0.3635,0,0.3761,0.3763,0.3764,0.3825,0.3825,0.3825,0.3825,0.3955,0.3958,0.3962,0,0,0,0,0,0,0,0,0,0,0,0,0,0.344,0.3443,0.3633,0.3635,0.3636,0.3761,0.3763,0.3764,0.3825,0.3825,0.3825,0.3825,0.3954,0.3958,0.3962,0,0,0,0,0,0,0,0,0,0,0,0,0,0.3541,0.3444,0.3633,0.3682,0.3687,0.3761,0.3763,0.3765,0.3825,0.3825,0.3825,0.3825,0.3952,0.3957,0.3963,0.3997,0,0,0.3979,0.3981,0,0,0,0,0,0,0,0,0.3536,0.3549,0.3673,0.3678,0.3685,0.3777,0.3742,0.3843,0.3825,0.3772,0.3825,0.3824,0.3896,0.3906,0.393,0.4003,0.4009,0.3979,0.3982,0.3985,0.3986,0,0,0,0,0,0,0,0.3529,0.3543,0.3684,0.3675,0.3682,0.3697,0.3711,0.3762,0.3833,0.3777,0.3782,0.3796,0.3899,0.3925,0.3933,0.4011,0.3979,0.3984,0.3987,0.3989,0.4119,0.412,0,0,0,0,0,0,0.3514,0.3537,0.368,0.3688,0.3609,0.37,0.3716,0.3747,0.3833,0.3846,0.3796,0.3798,0.3916,0.3927,0.3938,0.3985,0.3985,0.399,0.3993,0.4119,0.4119,0.412,0,0,0,0,0,0,0.3509,0.3526,0.3675,0.3614,0.3634,0.3704,0.3738,0.375,0.3776,0.3847,0.386,0.3809,0.3916,0.3931,0.3982,0.399,0.3992,0.3997,0.4119,0.4119,0.412,0.4077,0,0,0,0,0,0,0.3504,0.3524,0.3538,0.3614,0.3637,0.3717,0.3739,0.3753,0.3785,0.3789,0.3863,0.3875,0.3917,0.3974,0.3987,0.3997,0.4001,0.4118,0.4119,0.4119,0.4078,0.4076,0.4074,0,0,0,0,0,0.3496,0.3521,0.3538,0.3555,0.3656,0.3717,0.373,0.3778,0.3785,0.38,0.3846,0.3873,0.3987,0.3979,0.3994,0.4006,0.4118,0.4119,0.4119,0.4079,0.4076,0.4074,0,0,0,0,0,0,0.3444,0.3532,0.3552,0.3602,0.3651,0.3727,0.3747,0.3774,0.3823,0.3825,0.3882,0.3898,0.3945,0.398,0.397,0.4044,0.4055,0.4059,0.4019,0.4017,0.4015,0.4006,0.4005,0,0,0,0,0,0.3438,0.3481,0.3555,0.3591,0.3615,0.3676,0.3705,0.3738,0.3791,0.3813,0.3862,0.3913,0.3961,0.3991,0.4038,0.4083,0.4101,0.4099,0.4097,0.4095,0.4098,0.4125,0.4125,0.4122,0.4122,0.4122,0,0,0.3426,0.3479,0.3503,0.3582,0.3624,0.3667,0.3694,0.3738,0.377,0.3819,0.3871,0.3909,0.397,0.4018,0.4042,0.405,0.4102,0.4096,0.4094,0.4098,0.4125,0.4126,0.4126,0.4122,0.4122,0.4122,0,0,0.3427,0.3471,0.3507,0.3549,0.3613,0.3654,0.3662,0.3734,0.3761,0.3814,0.3852,0.3891,0.3971,0.4013,0.4045,0.4061,0.4088,0.4075,0.4065,0.409,0.4091,0.4091,0.4097,0.4099,0.4077,0.4077,0.4077,0,0.3404,0.347,0.3521,0.3564,0.3597,0.3644,0.368,0.3719,0.3795,0.3817,0.3824,0.3926,0.397,0.4029,0.4033,0.4057,0.4069,0.4067,0.4087,0.4088,0.4089,0.4095,0.4098,0.4075,0.4076,0.4076,0.4076,0,0.3439,0.3484,0.3505,0.3578,0.3614,0.3653,0.371,0.374,0.3769,0.3809,0.3863,0.3917,0.3977,0.3993,0.4022,0.4056,0.4059,0.4076,0.4088,0.4086,0.4094,0.4096,0.4073,0.4073,0.4074,0.4074,0,0,0.341,0.3511,0.3518,0.3552,0.3626,0.3662,0.3702,0.3761,0.3786,0.3837,0.3873,0.3939,0.3955,0.3991,0.4026,0.4048,0.4058,0.4062,0.4064,0.406,0.4099,0.4086,0.4089,0.4076,0.4076,0.4077,0.4094,0,0.3421,0.3498,0.3545,0.3602,0.3644,0.3689,0.3725,0.3774,0.3812,0.3854,0.3896,0.3942,0.396,0.3982,0.4006,0.4051,0.4066,0.4051,0.411,0.4111,0.4094,0.4092,0.4079,0.4093,0.4097,0.4098,0.4098,0,0.3445,0.3495,0.3556,0.3626,0.3646,0.3677,0.3734,0.3773,0.383,0.3856,0.3896,0.3931,0.3976,0.3984,0.4047,0.4035,0.4062,0.4088,0.4089,0.4097,0.4105,0.41,0.4098,0.41,0.4103,0.4103,0.4102,0,0.3418,0.3501,0.3548,0.3576,0.3658,0.3679,0.3714,0.3771,0.3803,0.3853,0.3875,0.3929,0.3959,0.4,0.4049,0.405,0.4107,0.4119,0.413,0.4129,0.414,0.4139,0.4143,0.4157,0.4157,0.4156,0.4156,0,0.3426,0.3461,0.3537,0.3567,0.3608,0.3662,0.3701,0.374,0.379,0.3827,0.3869,0.3903,0.3965,0.4007,0.4045,0.4091,0.4104,0.4127,0.4136,0.4123,0.412,0.4142,0.4142,0.4157,0.4157,0.4157,0.4157,0,0.3403,0.3455,0.351,0.3584,0.3603,0.363,0.3693,0.3723,0.3764,0.381,0.3824,0.3888,0.3939,0.3991,0.406,0.4086,0.4131,0.4145,0.4112,0.4118,0.4126,0.4125,0.4144,0.415,0.4159,0.4159,0.4159,0,0.3404,0.3433,0.351,0.3538,0.3573,0.3618,0.3651,0.3705,0.3738,0.3805,0.3826,0.3881,0.3927,0.4007,0.4059,0.4112,0.4127,0.4131,0.4136,0.4122,0.4128,0.4126,0.4129,0.4129,0.4128,0.4128,0.4128,0,0.3402,0.3427,0.3473,0.3529,0.3568,0.3614,0.3662,0.3682,0.3746,0.378,0.3834,0.387,0.394,0.3994,0.4053,0.409,0.4119,0.4126,0.4131,0.4118,0.4099,0.411,0.4108,0.4125,0.4125,0.4126,0.4126,0.4126,0.3392,0.342,0.3478,0.3529,0.3571,0.3614,0.3646,0.3691,0.3736,0.3798,0.3827,0.3881,0.3937,0.402,0.4055,0.4098,0.4106,0.4114,0.4116,0.4117,0.4114,0.4091,0.4109,0.4109,0.4109,0.4109,0.4109,0,0.3392,0.3432,0.3478,0.3544,0.3584,0.3608,0.3663,0.3694,0.3741,0.3791,0.3836,0.3897,0.3949,0.4005,0.4061,0.4084,0.4099,0.4097,0.4096,0.4104,0.4103,0.4093,0.4084,0.4084,0.4084,0.4084,0.4084,0.4084,0.3396,0.3445,0.3476,0.3546,0.3586,0.3639,0.3668,0.3708,0.3748,0.3815,0.3859,0.3895,0.3948,0.4008,0.4057,0.4072,0.409,0.4084,0.4103,0.4102,0.4104,0.4106,0.4097,0.4088,0.4088,0.4101,0.4101,0.4101]},{"header":{"parameterUnit":"m.s-1","parameterCategory":1,"la1":30.2991,"la2":30.254,"lo1":-89.0895,"lo2":-89.0444,"dy":0.0017,"dx":0.0017,"nx":28,"ny":28,"refTime":"2023-05-28T21:00:00:Z","depth":0,"parameterNumber":3,"parameterNumberName":"V-component_of_WINDS"},"data":[0,0,0,0,0,0,0,0,0,0,0,0,0,0,0,0,0,0,0,0,0,0,0,0,0,0,0,0,0,0,0,0,0,0,0,0,0,0,0,0,0,0,0,0,0,0,0,0,0,0,0,0,0,0,0,0,0,0,2.5063,2.5063,0,2.5087,2.5087,2.5088,2.5071,2.507,2.5069,2.5069,2.5091,2.5092,2.5093,0,0,0,0,0,0,0,0,0,0,0,0,0,2.4998,2.4999,2.5063,2.5063,2.5064,2.5087,2.5087,2.5088,2.5071,2.507,2.5069,2.5068,2.509,2.5092,2.5093,0,0,0,0,0,0,0,0,0,0,0,0,0,2.5025,2.5,2.5063,2.5058,2.5058,2.5087,2.5087,2.5088,2.5071,2.507,2.5069,2.5068,2.509,2.5092,2.5094,2.5128,0,0,2.5099,2.51,0,0,0,0,0,0,0,0,2.5023,2.5027,2.5059,2.5059,2.5058,2.5075,2.5073,2.5101,2.5072,2.5066,2.5069,2.5067,2.5086,2.5088,2.5095,2.5129,2.513,2.51,2.5101,2.5102,2.5102,0,0,0,0,0,0,0,2.5021,2.5026,2.5072,2.5059,2.5059,2.5053,2.5056,2.5078,2.5082,2.5067,2.5065,2.5069,2.5086,2.5093,2.5096,2.513,2.51,2.5101,2.5102,2.5103,2.5191,2.5192,0,0,0,0,0,0,2.502,2.5025,2.5072,2.5073,2.5038,2.5056,2.5058,2.5071,2.5082,2.5082,2.507,2.5068,2.5091,2.5093,2.5096,2.5136,2.5102,2.5103,2.5105,2.519,2.5192,2.5193,0,0,0,0,0,0,2.5019,2.5025,2.5071,2.5049,2.5054,2.5058,2.5072,2.5072,2.5079,2.5084,2.5084,2.5077,2.509,2.5094,2.512,2.5137,2.5104,2.5106,2.5189,2.5191,2.5192,2.5217,0,0,0,0,0,0,2.5017,2.5025,2.5039,2.5049,2.5055,2.5095,2.5073,2.5073,2.5083,2.5081,2.5091,2.5092,2.5089,2.5117,2.5122,2.5139,2.5108,2.5187,2.519,2.5192,2.5215,2.5219,2.5224,0,0,0,0,0,2.5015,2.5044,2.5039,2.5045,2.5073,2.5096,2.51,2.5097,2.5085,2.5098,2.5101,2.5091,2.5134,2.512,2.5125,2.5143,2.5186,2.5189,2.5192,2.5213,2.5219,2.5223,0,0,0,0,0,0,2.5035,2.5046,2.504,2.5074,2.5085,2.5093,2.511,2.5104,2.5117,2.5115,2.511,2.5113,2.514,2.5144,2.5128,2.5176,2.5158,2.5162,2.5172,2.5178,2.5182,2.5181,2.5109,0,0,0,0,0,2.5044,2.5063,2.507,2.5099,2.5105,2.5107,2.5117,2.5114,2.5124,2.5128,2.5133,2.5142,2.5158,2.5168,2.5183,2.5215,2.5216,2.523,2.5234,2.5238,2.5241,2.5257,2.5263,2.5202,2.5202,2.5202,0,0,2.5061,2.5069,2.5082,2.5104,2.5111,2.513,2.5111,2.5131,2.5144,2.5131,2.5156,2.516,2.517,2.5199,2.5212,2.5203,2.5258,2.5241,2.5244,2.5245,2.5261,2.5266,2.5271,2.5203,2.5203,2.5203,0,0,2.5103,2.5111,2.5136,2.5144,2.5156,2.5156,2.5162,2.5172,2.5174,2.5199,2.5189,2.5204,2.5231,2.5239,2.5246,2.5288,2.528,2.5293,2.5316,2.5332,2.5336,2.5341,2.5355,2.536,2.5296,2.5296,2.5296,0,2.5123,2.5151,2.5149,2.517,2.5179,2.5168,2.5192,2.52,2.5215,2.5222,2.5212,2.5245,2.5251,2.5281,2.5291,2.5298,2.5303,2.5292,2.5336,2.534,2.5344,2.5358,2.5363,2.5298,2.5298,2.5297,2.5297,0,2.5175,2.5194,2.5212,2.5228,2.524,2.5262,2.5262,2.5273,2.5269,2.527,2.5295,2.5302,2.5317,2.5324,2.532,2.5353,2.5347,2.5337,2.5319,2.5352,2.5364,2.537,2.53,2.5299,2.5299,2.5299,0,0,2.523,2.5244,2.525,2.5257,2.5269,2.5283,2.5304,2.532,2.5329,2.534,2.5357,2.5379,2.5369,2.5377,2.5374,2.5388,2.542,2.5375,2.5375,2.5383,2.5455,2.5463,2.5469,2.5414,2.5415,2.5416,2.5454,0,2.5272,2.5309,2.5307,2.5342,2.5359,2.5348,2.5366,2.5375,2.5376,2.539,2.5391,2.5407,2.5393,2.5398,2.5411,2.5413,2.5434,2.541,2.5428,2.5429,2.5426,2.5476,2.5485,2.5521,2.5459,2.546,2.5461,0,2.5325,2.5338,2.5375,2.5383,2.539,2.5407,2.542,2.5434,2.5442,2.5442,2.5451,2.5445,2.5464,2.5446,2.5472,2.5456,2.5463,2.5465,2.5466,2.5468,2.5447,2.5478,2.5532,2.5538,2.5469,2.5468,2.5467,0,2.5361,2.5388,2.5413,2.5419,2.5429,2.544,2.5445,2.5453,2.5461,2.5473,2.5478,2.5491,2.5498,2.5508,2.5505,2.5492,2.5532,2.5513,2.5531,2.5531,2.554,2.554,2.5596,2.5546,2.5545,2.5545,2.5545,0,2.5407,2.543,2.5429,2.5444,2.5469,2.5465,2.5489,2.5492,2.5499,2.5514,2.5505,2.5519,2.5514,2.5527,2.5525,2.5547,2.555,2.555,2.5549,2.555,2.555,2.5555,2.5552,2.5547,2.5546,2.5546,2.5546,0,2.5452,2.5452,2.5479,2.5486,2.5488,2.5506,2.5511,2.5525,2.5525,2.5544,2.5548,2.5549,2.5564,2.5562,2.5578,2.5577,2.5604,2.56,2.5601,2.56,2.5618,2.5616,2.5679,2.5687,2.5632,2.5632,2.5633,0,2.5481,2.5499,2.5507,2.5517,2.5522,2.5538,2.5547,2.5543,2.5553,2.5563,2.5575,2.559,2.5601,2.5625,2.5627,2.5639,2.5635,2.5656,2.5637,2.5638,2.5635,2.5634,2.5635,2.566,2.5661,2.5661,2.5661,0,2.5533,2.5532,2.5546,2.556,2.5571,2.5581,2.559,2.5599,2.5596,2.5606,2.5622,2.5631,2.5648,2.5662,2.5673,2.5676,2.5668,2.5667,2.5672,2.5674,2.5674,2.5674,2.5611,2.5666,2.5666,2.5665,2.5665,2.5665,2.5571,2.5585,2.5593,2.5608,2.5615,2.5624,2.5637,2.5639,2.5652,2.5666,2.5662,2.568,2.5686,2.5701,2.5705,2.5718,2.571,2.5717,2.5719,2.5721,2.5723,2.5672,2.572,2.572,2.572,2.572,2.572,0,2.5622,2.5626,2.564,2.5654,2.5665,2.5657,2.5666,2.5676,2.5692,2.5699,2.571,2.5727,2.5741,2.5743,2.5755,2.5764,2.5761,2.5768,2.5767,2.5768,2.5729,2.5724,2.577,2.577,2.577,2.577,2.577,2.577,2.565,2.5673,2.5673,2.5699,2.5703,2.572,2.5726,2.5733,2.5739,2.5759,2.577,2.5771,2.5776,2.5788,2.58,2.58,2.5804,2.5813,2.5811,2.5775,2.577,2.5766,2.576,2.5814,2.5814,2.5848,2.5849,2.5849]}]]